Location: Asheville, NC
(35.6000°N, 82.5500°W)
Time: 02:09:21
(UTC-04:00)

ISS - Pass Details

Date: 17 May 2019
Orbit: 407 x 410 km, 51.6° (Epoch: 23 May)

Event Time Altitude Azimuth Distance (km) Brightness Sun altitude
Rises 22:14:21 0° 233° (SW) 2,313 0.1 -18.6°
Reaches altitude 10° 22:16:26 10° 236° (SW) 1,457 -0.9 -18.9°
Maximum altitude 22:19:41 67° 319° (NW) 443 -3.5 -19.4°
Drops below altitude 10° 22:22:58 10° 43° (NE) 1,467 -1.0 -19.8°
Sets 22:25:04 0° 46° (NE) 2,330 0.0 -20.1°
